ITY4301 LIML-LIBP

Flight info

Callsign ITY4301
Flight time 0h 51m
Altitude 35000
Route LOGDI DCT RIPDU DCT LURUT DCT SORUG DCT LAPVO/N0403F190 Y579 INKIM
Aircraft A320/M-SDE3FGHIRWY/LB1

Departure

Time 2026-04-16 14:30
Airport Milano Linate Airport (LIML)

Arrival

Time 2026-04-16 15:22
Airport Abruzzo Airport (LIBP)
Time Latitude Longitude Altitude Speed Heading
2026-04-16 14:00 45.45652 9.27882 370 ft 0 kts 91°
2026-04-16 14:24 45.45651 9.27940 365 ft 8 kts 94°
2026-04-16 14:24 45.45628 9.27975 367 ft 7 kts 157°
2026-04-16 14:24 45.45587 9.27982 363 ft 6 kts 179°
2026-04-16 14:24 45.45547 9.27981 362 ft 5 kts 181°
2026-04-16 14:25 45.45512 9.27980 362 ft 5 kts 182°
2026-04-16 14:25 45.45463 9.27979 362 ft 9 kts 180°
2026-04-16 14:25 45.45381 9.27972 364 ft 15 kts 194°
2026-04-16 14:25 45.45271 9.27897 364 ft 17 kts 203°
2026-04-16 14:26 45.45153 9.27873 360 ft 16 kts 176°
2026-04-16 14:26 45.45049 9.27885 361 ft 15 kts 175°
2026-04-16 14:26 45.44951 9.27899 360 ft 13 kts 166°
2026-04-16 14:26 45.44867 9.27935 362 ft 12 kts 165°
2026-04-16 14:27 45.44782 9.27948 360 ft 14 kts 176°
2026-04-16 14:27 45.44671 9.27959 357 ft 18 kts 176°
2026-04-16 14:27 45.44536 9.27974 356 ft 21 kts 175°
2026-04-16 14:27 45.44378 9.27991 357 ft 24 kts 175°
2026-04-16 14:28 45.44198 9.28010 361 ft 26 kts 175°
2026-04-16 14:28 45.44018 9.28030 357 ft 26 kts 176°
2026-04-16 14:28 45.43835 9.28050 353 ft 27 kts 175°
2026-04-16 14:28 45.43657 9.28069 358 ft 25 kts 175°
2026-04-16 14:29 45.43483 9.28084 349 ft 22 kts 189°
2026-04-16 14:29 45.43440 9.27938 352 ft 17 kts 263°
2026-04-16 14:29 45.43443 9.27817 356 ft 9 kts 310°
2026-04-16 14:29 45.43502 9.27811 358 ft 10 kts
2026-04-16 14:30 45.43752 9.27809 356 ft 74 kts 355°
2026-04-16 14:30 45.44522 9.27707 358 ft 139 kts 355°
2026-04-16 14:30 45.45621 9.27630 602 ft 166 kts 360°
2026-04-16 14:30 45.46793 9.27752 1406 ft 160 kts
2026-04-16 14:31 45.47897 9.27934 1858 ft 173 kts
2026-04-16 14:31 45.49162 9.28100 2265 ft 190 kts
2026-04-16 14:31 45.50521 9.28278 2906 ft 193 kts
2026-04-16 14:31 45.51798 9.28856 3518 ft 195 kts 42°
2026-04-16 14:32 45.52427 9.30513 4129 ft 193 kts 88°
2026-04-16 14:32 45.52158 9.32405 4779 ft 193 kts 112°
2026-04-16 14:32 45.51355 9.34067 5112 ft 213 kts 134°
2026-04-16 14:32 45.50340 9.35818 5206 ft 246 kts 121°
2026-04-16 14:33 45.49354 9.37964 5679 ft 266 kts 123°
2026-04-16 14:33 45.48301 9.40185 6468 ft 273 kts 123°
2026-04-16 14:33 45.47194 9.42475 7326 ft 277 kts 124°
2026-04-16 14:33 45.46105 9.44714 8136 ft 281 kts 123°
2026-04-16 14:34 45.44966 9.47074 8977 ft 285 kts 123°
2026-04-16 14:34 45.43846 9.49407 9797 ft 289 kts 123°
2026-04-16 14:34 45.42708 9.51805 10395 ft 301 kts 123°
2026-04-16 14:34 45.41492 9.54370 10698 ft 322 kts 123°
2026-04-16 14:35 45.40219 9.57057 11275 ft 331 kts 123°
2026-04-16 14:35 45.38908 9.59788 11975 ft 337 kts 126°
2026-04-16 14:35 45.37337 9.62296 12675 ft 343 kts 137°
2026-04-16 14:35 45.35439 9.64377 13401 ft 347 kts 148°
2026-04-16 14:36 45.33333 9.66191 14113 ft 351 kts 148°
2026-04-16 14:36 45.31225 9.68015 14730 ft 355 kts 148°
2026-04-16 14:36 45.29114 9.69852 15339 ft 360 kts 148°
2026-04-16 14:36 45.26967 9.71725 15951 ft 364 kts 148°
2026-04-16 14:37 45.24797 9.73620 16550 ft 368 kts 148°
2026-04-16 14:37 45.22602 9.75532 17151 ft 372 kts 148°
2026-04-16 14:37 45.20410 9.77441 17742 ft 376 kts 148°
2026-04-16 14:37 45.18131 9.79422 18348 ft 380 kts 148°
2026-04-16 14:38 45.16604 9.80748 18693 ft 383 kts 148°
2026-04-16 14:38 45.14319 9.82726 19232 ft 386 kts 148°
2026-04-16 14:38 45.11980 9.84748 19781 ft 389 kts 148°
2026-04-16 14:38 45.09658 9.86748 20313 ft 392 kts 148°
2026-04-16 14:39 45.07320 9.88760 20842 ft 396 kts 148°
2026-04-16 14:39 45.04957 9.90795 21369 ft 399 kts 148°
2026-04-16 14:39 45.02578 9.92847 21892 ft 402 kts 148°
2026-04-16 14:39 45.00181 9.94914 22411 ft 406 kts 148°
2026-04-16 14:40 44.97759 9.96997 22925 ft 409 kts 148°
2026-04-16 14:40 44.95321 9.99089 23458 ft 412 kts 148°
2026-04-16 14:40 44.92893 10.01171 23922 ft 415 kts 148°
2026-04-16 14:40 44.90383 10.03322 24377 ft 417 kts 148°
2026-04-16 14:41 44.87926 10.05425 24801 ft 420 kts 148°
2026-04-16 14:41 44.85422 10.07568 25222 ft 422 kts 148°
2026-04-16 14:41 44.82903 10.09725 25628 ft 425 kts 148°
2026-04-16 14:41 44.80357 10.11899 26037 ft 427 kts 149°
2026-04-16 14:42 44.77806 10.14069 26429 ft 429 kts 149°
2026-04-16 14:42 44.75292 10.16360 26816 ft 432 kts 143°
2026-04-16 14:42 44.73003 10.19113 27187 ft 434 kts 134°
2026-04-16 14:42 44.71008 10.22288 27552 ft 435 kts 126°
2026-04-16 14:43 44.69351 10.25851 27923 ft 436 kts 117°
2026-04-16 14:43 44.68056 10.29649 28288 ft 437 kts 113°
2026-04-16 14:43 44.66809 10.33548 28680 ft 438 kts 113°
2026-04-16 14:43 44.65549 10.37440 29164 ft 437 kts 113°
2026-04-16 14:44 44.64282 10.41321 29638 ft 436 kts 114°
2026-04-16 14:44 44.63015 10.45188 30113 ft 436 kts 113°
2026-04-16 14:44 44.61943 10.49153 30519 ft 434 kts 105°
2026-04-16 14:44 44.61147 10.53240 30903 ft 434 kts 104°
2026-04-16 14:45 44.60366 10.57321 31291 ft 433 kts 104°
2026-04-16 14:45 44.59579 10.61396 31693 ft 433 kts 104°
2026-04-16 14:45 44.58795 10.65429 32100 ft 432 kts 104°
2026-04-16 14:45 44.57978 10.69616 32520 ft 431 kts 104°
2026-04-16 14:46 44.57194 10.73641 32897 ft 431 kts 105°
2026-04-16 14:46 44.56408 10.77683 33261 ft 431 kts 105°
2026-04-16 14:46 44.55619 10.81740 33617 ft 430 kts 105°
2026-04-16 14:46 44.54825 10.85799 33971 ft 430 kts 105°
2026-04-16 14:47 44.54034 10.89832 34282 ft 430 kts 105°
2026-04-16 14:47 44.53224 10.93883 34575 ft 429 kts 108°
2026-04-16 14:47 44.51988 10.97723 34861 ft 428 kts 118°
2026-04-16 14:47 44.50553 11.01442 35071 ft 430 kts 119°
2026-04-16 14:48 44.47634 11.08941 35142 ft 442 kts 119°
2026-04-16 14:48 44.44639 11.16597 35141 ft 455 kts 119°
2026-04-16 14:49 44.41571 11.24402 35144 ft 466 kts 119°
2026-04-16 14:49 44.38411 11.32430 35115 ft 471 kts 119°
2026-04-16 14:50 44.35249 11.40442 35123 ft 471 kts 119°
2026-04-16 14:50 44.32046 11.48544 35129 ft 471 kts 119°
2026-04-16 14:51 44.28871 11.56560 35144 ft 471 kts 119°
2026-04-16 14:51 44.25692 11.64572 35144 ft 471 kts 119°
2026-04-16 14:53 44.12907 11.96515 35155 ft 471 kts 119°
2026-04-16 14:54 44.09687 12.04485 35158 ft 471 kts 119°
2026-04-16 14:54 44.06491 12.12375 35162 ft 471 kts 118°
2026-04-16 14:55 44.03276 12.20312 35179 ft 470 kts 118°
2026-04-16 14:55 44.00066 12.28221 35177 ft 470 kts 119°
2026-04-16 14:56 43.96846 12.36117 35155 ft 469 kts 119°
2026-04-16 14:56 43.93624 12.43998 35158 ft 469 kts 118°
2026-04-16 14:57 43.90383 12.51911 35158 ft 468 kts 118°
2026-04-16 14:57 43.87159 12.59737 35158 ft 467 kts 118°
2026-04-16 14:58 43.82324 12.71458 35153 ft 467 kts 118°
2026-04-16 14:59 43.79092 12.79260 35153 ft 466 kts 118°
2026-04-16 14:59 43.77484 12.83137 34730 ft 462 kts 118°
2026-04-16 14:59 43.75882 12.86996 33897 ft 463 kts 118°
2026-04-16 14:59 43.74255 12.90909 32903 ft 464 kts 118°
2026-04-16 15:00 43.72637 12.94792 31906 ft 467 kts 118°
2026-04-16 15:00 43.71014 12.98688 30900 ft 469 kts 118°
2026-04-16 15:00 43.69379 13.02606 29815 ft 472 kts 118°
2026-04-16 15:00 43.67733 13.06543 28581 ft 475 kts 118°
2026-04-16 15:01 43.66075 13.10502 27351 ft 477 kts 118°
2026-04-16 15:01 43.64410 13.14469 26106 ft 479 kts 118°
2026-04-16 15:01 43.62735 13.18459 24819 ft 482 kts 119°
2026-04-16 15:01 43.61613 13.21129 24057 ft 483 kts 120°
2026-04-16 15:02 43.59913 13.25168 23145 ft 477 kts 120°
2026-04-16 15:02 43.58254 13.29101 22257 ft 471 kts 120°
2026-04-16 15:02 43.56618 13.32979 21408 ft 466 kts 120°
2026-04-16 15:02 43.54993 13.36819 20635 ft 460 kts 120°
2026-04-16 15:03 43.53391 13.40597 19912 ft 454 kts 120°
2026-04-16 15:03 43.51783 13.44388 19334 ft 451 kts 120°
2026-04-16 15:03 43.50201 13.48114 19136 ft 451 kts 120°
2026-04-16 15:03 43.48618 13.51842 19117 ft 449 kts 120°
2026-04-16 15:04 43.47039 13.55560 19121 ft 450 kts 120°
2026-04-16 15:04 43.45461 13.59271 19122 ft 449 kts 120°
2026-04-16 15:04 43.43880 13.62986 19122 ft 449 kts 120°
2026-04-16 15:04 43.42307 13.66670 18700 ft 444 kts 120°
2026-04-16 15:05 43.40750 13.70303 17937 ft 439 kts 120°
2026-04-16 15:05 43.39204 13.73903 17188 ft 434 kts 120°
2026-04-16 15:05 43.37677 13.77454 16488 ft 429 kts 120°
2026-04-16 15:05 43.36155 13.80962 15804 ft 425 kts 122°
2026-04-16 15:06 43.34392 13.84188 15155 ft 421 kts 130°
2026-04-16 15:06 43.32302 13.86989 14531 ft 417 kts 139°
2026-04-16 15:06 43.29950 13.89292 13927 ft 414 kts 148°
2026-04-16 15:06 43.27394 13.91073 13240 ft 411 kts 156°
2026-04-16 15:07 43.24771 13.92587 12556 ft 407 kts 156°
2026-04-16 15:07 43.22174 13.94098 11831 ft 402 kts 155°
2026-04-16 15:07 43.19646 13.95572 11354 ft 382 kts 156°
2026-04-16 15:07 43.17267 13.96960 11224 ft 363 kts 156°
2026-04-16 15:08 43.14995 13.98286 11064 ft 346 kts 155°
2026-04-16 15:08 43.12805 13.99566 10529 ft 339 kts 155°
2026-04-16 15:08 43.10648 14.00828 9897 ft 336 kts 155°
2026-04-16 15:08 43.08506 14.02080 9190 ft 333 kts 155°
2026-04-16 15:09 43.06381 14.03321 8488 ft 331 kts 155°
2026-04-16 15:09 43.04265 14.04557 8067 ft 320 kts 155°
2026-04-16 15:09 43.02265 14.05722 7946 ft 301 kts 155°
2026-04-16 15:09 43.00505 14.07100 7673 ft 285 kts 137°
2026-04-16 15:10 42.99089 14.08949 7183 ft 281 kts 133°
2026-04-16 15:10 42.97698 14.10823 6694 ft 280 kts 134°
2026-04-16 15:10 42.96316 14.12690 6253 ft 278 kts 134°
2026-04-16 15:10 42.94943 14.14546 5664 ft 278 kts 133°
2026-04-16 15:11 42.93570 14.16402 5137 ft 277 kts 134°
2026-04-16 15:11 42.92206 14.18246 4610 ft 275 kts 134°
2026-04-16 15:11 42.90850 14.20077 4114 ft 273 kts 134°
2026-04-16 15:11 42.89497 14.21900 3991 ft 274 kts 134°
2026-04-16 15:12 42.88137 14.23734 3993 ft 273 kts 135°
2026-04-16 15:12 42.86832 14.25491 3993 ft 254 kts 134°
2026-04-16 15:12 42.85610 14.27132 3998 ft 236 kts 134°
2026-04-16 15:12 42.84469 14.28661 4001 ft 224 kts 134°
2026-04-16 15:13 42.83365 14.30145 4005 ft 222 kts 134°
2026-04-16 15:13 42.82262 14.31631 4007 ft 224 kts 134°
2026-04-16 15:13 42.81150 14.33126 4007 ft 223 kts 134°
2026-04-16 15:13 42.80047 14.34605 3997 ft 224 kts 134°
2026-04-16 15:14 42.78918 14.36119 4007 ft 225 kts 134°
2026-04-16 15:14 42.77800 14.37617 4007 ft 225 kts 134°
2026-04-16 15:14 42.76703 14.39087 4000 ft 223 kts 134°
2026-04-16 15:14 42.75593 14.40571 4008 ft 224 kts 135°
2026-04-16 15:15 42.74343 14.41825 3994 ft 224 kts 152°
2026-04-16 15:15 42.72896 14.42668 4002 ft 223 kts 158°
2026-04-16 15:15 42.71454 14.43454 4000 ft 223 kts 158°
2026-04-16 15:15 42.69982 14.44103 4005 ft 222 kts 173°
2026-04-16 15:16 42.68469 14.44058 4007 ft 221 kts 195°
2026-04-16 15:16 42.67082 14.43224 3996 ft 218 kts 219°
2026-04-16 15:16 42.65864 14.41954 4003 ft 218 kts 220°
2026-04-16 15:16 42.64658 14.40691 4012 ft 227 kts 220°
2026-04-16 15:17 42.63389 14.39366 4012 ft 231 kts 220°
2026-04-16 15:17 42.62113 14.38035 4012 ft 231 kts 220°
2026-04-16 15:17 42.60825 14.36691 4007 ft 231 kts 220°
2026-04-16 15:17 42.59546 14.35357 3835 ft 231 kts 219°
2026-04-16 15:18 42.58277 14.34035 3566 ft 229 kts 219°
2026-04-16 15:18 42.57019 14.32724 3279 ft 227 kts 219°
2026-04-16 15:18 42.55768 14.31422 2967 ft 226 kts 220°
2026-04-16 15:18 42.54523 14.30127 2681 ft 225 kts 220°
2026-04-16 15:19 42.53288 14.28843 2363 ft 223 kts 220°
2026-04-16 15:19 42.52075 14.27582 2083 ft 216 kts 221°
2026-04-16 15:19 42.50915 14.26379 1805 ft 204 kts 221°
2026-04-16 15:19 42.49844 14.25268 1548 ft 187 kts 221°
2026-04-16 15:20 42.48863 14.24251 1307 ft 169 kts 221°
2026-04-16 15:20 42.47968 14.23322 1081 ft 156 kts 221°
2026-04-16 15:20 42.47129 14.22450 880 ft 149 kts 220°
2026-04-16 15:20 42.46312 14.21602 687 ft 147 kts 218°
2026-04-16 15:21 42.45489 14.20747 470 ft 147 kts 218°
2026-04-16 15:21 42.44679 14.19908 285 ft 149 kts 217°
2026-04-16 15:21 42.43873 14.19035 65 ft 148 kts 214°
2026-04-16 15:21 42.43126 14.18303 46 ft 105 kts 217°
2026-04-16 15:22 42.42776 14.17943 53 ft 30 kts 208°
2026-04-16 15:22 42.42643 14.17902 54 ft 16 kts 185°
2026-04-16 15:22 42.42559 14.17965 53 ft 14 kts 101°
2026-04-16 15:22 42.42626 14.18066 52 ft 16 kts 35°
2026-04-16 15:23 42.42723 14.18166 51 ft 19 kts 38°
2026-04-16 15:23 42.42833 14.18281 49 ft 21 kts 35°
2026-04-16 15:23 42.42954 14.18406 47 ft 22 kts 38°
2026-04-16 15:23 42.43018 14.18545 47 ft 15 kts 82°
2026-04-16 15:24 42.43054 14.18654 47 ft 12 kts 37°
2026-04-16 15:24 42.43089 14.18710 46 ft 4 kts 115°
2026-04-16 15:24 42.43075 14.18736 45 ft 3 kts 129°
2026-04-16 15:24 42.43064 14.18754 45 ft 2 kts 129°
2026-04-16 15:25 42.43060 14.18760 46 ft 0 kts 129°